Regional Weather Roundup
Issued by NWS

Home | Current Version | Previous Version | Graphics & Text | Print | Product List | Glossary On
Versions: 1 2 3 4 5 6 7 8 9 10 11 12 13 14 15 16 17 18 19 20 21 22 23 24 25 26 27 28 29 30 31 32 33 34 35 36 37 38 39 40 41 42 43 44 45 46 47 48 49 50
000
ASUS43 KDMX 040107
RWRIA

WEATHER ROUNDUP FOR IOWA
NATIONAL WEATHER SERVICE DES MOINES IA
800 PM CDT SUN MAY 03 2015

NOTE: "FAIR" INDICATES FEW OR NO CLOUDS BELOW 12,000 FEET WITH NO
SIGNIFICANT WEATHER AND/OR OBSTRUCTIONS TO VISIBILITY.

* - THESE STATIONS ARE NOT NWS STATIONS...THUS NOT UNDER NWS
QUALITY CONTROL.  THEY ALSO DO NOT REPORT WEATHER SUCH
AS PRECIPITATION OR FOG.

IAZ001>003-012>014-020>022-031>034-043>046-040200-
   NORTHWEST IOWA

CITY           SKY/WX    TMP DP  RH WIND       PRES   REMARKS
CARROLL *      CLEAR     75  59  57 S10       29.75R
CHEROKEE *     PTCLDY    72  45  37 NE14G23   29.78R
DENISON *      CLEAR     75  61  60 S9        29.74R
LE MARS *      CLEAR     73  41  31 NE17G24   29.80R
ORANGE CITY *  CLEAR     70  41  35 NE7G18    29.81R
SHELDON *      CLEAR     70  41  35 NE24G31   29.79R
SIOUX CITY     PTCLDY    77  44  30 NE23G30   29.76R
SPENCER        PTCLDY    69  47  45 N21       29.78S
STORM LAKE *   PTCLDY    72  46  40 NE28G37   29.79R
$$

IAZ055>058-069>071-079>083-090>094-040200-
   SOUTHWEST IOWA

CITY           SKY/WX    TMP DP  RH WIND       PRES   REMARKS
ATLANTIC *     CLEAR     72  61  68 S8        29.76R
AUDUBON *      CLEAR     73  63  68 S6        29.78R
CLARINDA *     CLOUDY    73  61  64 SW7       29.82R
COUNCIL BLFS * MOCLDY    73  63  68 S17       29.74F
CRESTON *      CLEAR     73  59  60 S15G24    29.77F
HARLAN  *      CLEAR     75  61  60 SW8       29.79R
LAMONI         MOCLDY    77  58  51 S12       29.80F
RED OAK *      PTCLDY    75  61  60 S12G18    29.76R
SHENANDOAH *   CLOUDY    75  57  53 S22G32    29.77F
$$

IAZ047>049-059>061-072>074-084-040200-
   CENTRAL IOWA

CITY           SKY/WX    TMP DP  RH WIND       PRES   REMARKS
AMES           PTCLDY    75  57  53 S8        29.75S
ANKENY *       CLEAR     77  59  53 S8        29.75S
CHARITON *     CLEAR     73  59  60 S10       29.79F
DES MOINES     MOCLDY    77  58  51 S9        29.75F
GRINNELL*      CLEAR     73  57  56 S10       29.78F
KNOXVILLE *    PTCLDY    75  57  53 S9        29.77S
MARSHALLTOWN   PTCLDY    76  58  53 S14       29.75S
PELLA *        PTCLDY    73  63  68 S8        29.79F
PERRY *          N/A     77  57  50 S9        29.74S
$$

IAZ004>006-015-016-023>025-035-036-040200-
   NORTH CENTRAL IOWA

CITY           SKY/WX    TMP DP  RH WIND       PRES   REMARKS
ALGONA *       CLOUDY    66  54  63 N21G37    29.77R
CLARION *      MOCLDY    72  55  56 N32G46    29.77R HAZE
ESTHERVILLE    CLOUDY    69  45  41 N28       29.79F
FORT DODGE *   MOCLDY    73  54  49 N16G24    29.79R THUNDER
MASON CITY     TSTM      65  58  78 VRB7      29.82R
FOREST CITY *  RAIN      63  59  88 NW22      29.79R
IOWA FALLS *     N/A     75  57  53 S18G25    29.76R
$$

IAZ007>011-017>019-026>030-037>042-050>054-066-040200-
   NORTHEAST IOWA

CITY           SKY/WX    TMP DP  RH WIND       PRES   REMARKS
CEDAR RAPIDS   PTCLDY    77  59  53 S13       29.80S
CHARLES CITY * CLEAR     73  57  56 S7        29.78R
CLINTON *      CLEAR     66  61  82 SE12      29.86F
DECORAH *      CLEAR     73  57  56 S8        29.78R
DUBUQUE        PTCLDY    66  59  78 SE10      29.82F
MONTICELLO *   CLOUDY    70  64  83 SE14G20   29.79F
OELWEIN *      CLOUDY    77  55  47 S14       29.79R
WATERLOO       PTCLDY    76  57  51 S13       29.76R
$$

IAZ064-065-067-068-078-040200-
   EAST CENTRAL IOWA

CITY           SKY/WX    TMP DP  RH WIND       PRES   REMARKS
DAVENPORT      CLOUDY    78  53  41 S12       29.83F
IOWA CITY      CLEAR     76  56  49 S12       29.82F
MT. PLEASANT * CLEAR     75  54  46 S12       29.84F
MUSCATINE *    CLEAR     77  55  47 S15       29.83S
QUAD CITIES    MOCLDY    78  55  44 S9        29.83S
$$

IAZ062-063-075>077-085>089-095>099-040200-
   SOUTHEAST IOWA

CITY           SKY/WX    TMP DP  RH WIND       PRES   REMARKS
BURLINGTON     PTCLDY    76  56  49 S12       29.86R
FAIRFIELD *    CLEAR     75  55  50 S13       29.82F
FORT MADISON * CLEAR     75  55  50 S9        29.87S
KEOKUK *       CLEAR     75  57  53 S13       29.85R
OSKALOOSA *      N/A     73  57  56 S12       29.80F
CENTERVILLE *  CLEAR     73  59  60 S10       29.84S
OTTUMWA        PTCLDY    74  58  57 S12       29.80F
WASHINGTON *   CLEAR     75  61  60 S13       29.82F
$$

ABBREVIATIONS USED IN REMARKS
   TC - TEMPERATURES IN CELSIUS
  WCI - WIND CHILL INDEX
   HX - HEAT INDEX
  VSB - VISIBILITY
$$




USA.gov is the U.S. government's official web portal to all federal, state and local government web resources and services.